Weather in Ilir

Russia / Irkutsk Oblast     55°13′33″N   100°41′20″E
temp.,
°C
wind,
m/s
gust,
m/s
humid.,
%
clouds,
%
prec.,
mm/h
press.,
hPa
HPBL,
m
28 february, sun
sun2823:00−22s2298100 0.1 103754
02:00−21sw3996100 0.1 1037321
05:00−22w2595100 0.0 1037115
08:00−24sw2294100 0.0 103921
11:00−19wsw3786100 0.0 1039827
14:00−17w4684100 0.1 10381185
17:00−17w3580100 0.1 1038863
20:00−20s1193100 0.1 103720
1 march, mon
mon123:00−20s1295100 0.1 103620
02:00−21s1197100 0.1 103420
05:00−21ssw2396100 0.1 103189
08:00−22s2296100 0.1 103024
11:00−19s239254 0.0 1028187
14:00−14s238462 0.0 1024405
17:00−12sse2485100 0.0 1020541
20:00−16sse2392100 0.0 101954
2 march, tue
tue223:00−18sse1192100 0.0 101620
02:00−17e1198100 0.3 101421
05:00−18ne1198100 0.2 101320
08:00−18n1198100 0.3 101320
11:00−15nne2293100 0.2 1014305
14:00−13nne2388100 0.3 1014481
17:00−13nne2491100 0.1 1015544
20:00−17ne2697100 0.4 1019278
3 march, wed
wed323:00−22nne3795100 0.1 1021247
02:00−26nne2595100 0.1 1022145
05:00−29nne2294100 0.0 102423
08:00−33nne119590 0.0 102719
11:00−27ne239157 0.0 1027249
14:00−23nne238333 0.0 1027503
17:00−22ne238362 0.0 1027586
20:00−29ene228938 0.0 103019
4 march, thu
thu423:00−32ene11900 0.0 103219
02:00−34ne11980 0.0 103419
05:00−35ne111001 0.0 103519
08:00−36ene111000 0.0 103719
11:00−28e12910 0.0 1037234
14:00−21ese23794 0.0 1035567
17:00−19ese24800 0.0 1035675
20:00−25ese22918 0.0 103720